Weather in Yelgay

Russia / Tomsk District     56°15′00″N   83°20′21″E
temp.,
°C
wind,
m/s
gust,
m/s
humid.,
%
clouds,
%
prec.,
mm/h
press.,
hPa
HPBL,
m
28 november, sun
sun2801:00−6sw61593100 1.5 1023920
04:00−6sw61494100 1.2 1022854
07:00−5wsw61493100 1.8 1023763
10:00−5wsw51392100 0.2 1026629
13:00−4sw51191100 0.3 1027753
16:00−4wsw51190100 0.1 1028672
19:00−4wsw51091100 0.2 1031730
22:00−6wsw4109299 0.1 1032484
29 november, mon
mon2901:00−6sw3893100 0.1 1033507
04:00−9sw3896100 0.1 1034247
07:00−11ssw399796 0.1 1033196
10:00−11ssw3109598 0.0 1033258
13:00−8ssw41190100 0.0 1032319
16:00−7ssw41188100 0.0 1030356
19:00−8ssw41288100 0.0 1030348
22:00−8ssw41381100 0.0 1029357
30 november, tue
tue3001:00−9sw41479100 0.0 1027357
04:00−9sw4138057 0.0 1026335
07:00−10sw4138153 0.0 1025302
10:00−10sw412835 0.0 1026273
13:00−7sw412796 0.0 1026341
16:00−7sw4117994 0.0 1025316
19:00−7sw4118299 0.0 1026289
22:00−8sw4108598 0.0 1027232
1 december, wed
wed101:00−9sw498587 0.0 1027204
04:00−13ssw2890100 0.0 1028124
07:00−15ssw3986100 0.0 1027141
10:00−14ssw3108877 0.0 1027172
13:00−8ssw31383100 0.0 1026321
16:00−6ssw41383100 0.0 1024346
19:00−7ssw4148486 0.0 1023320
22:00−8ssw4148395 0.0 1023308
2 december, thu
thu201:00−8ssw41384100 0.0 1022282
04:00−9ssw41386100 0.0 1021253
07:00−9ssw31188100 0.0 1021237
10:00−9ssw41287100 0.0 1020254
13:00−6ssw41384100 0.0 1019348
16:00−5ssw41284100 0.0 1018330
19:00−7ssw41485100 0.0 1016285
22:00−5s51582100 0.0 1014355